This is the latest recevied weather packets stored in our database for station/object K1WJY. If no packets are shown the sender has not sent any weather packets the latest 10 day(s).
| Time | Temp. | Humidity | Pressure | Rain* | Wind** | Luminosity | Snow |
|---|---|---|---|---|---|---|---|
| 1787907539 | 19.44° C | 99% | 1018.2 hPa | 0 mm | - | 0 W/m² | - |
| 1787907238 | 18.89° C | 99% | 1018.4 hPa | 0 mm | - | 0 W/m² | - |
| 1787906934 | 18.89° C | 99% | 1018.1 hPa | 0 mm | - | 0 W/m² | - |
| 1787906630 | 18.33° C | 99% | 1018.3 hPa | 0 mm | - | 0 W/m² | - |
| 1787906330 | 18.33° C | 99% | 1018.2 hPa | 0 mm | - | 0 W/m² | - |
| 1787906025 | 18.33° C | 99% | 1018.1 hPa | 0 mm | - | 0 W/m² | - |
| 1787905720 | 18.33° C | 99% | 1018.2 hPa | 0 mm | - | 0 W/m² | - |
| 1787905417 | 18.33° C | 99% | 1018.2 hPa | 0 mm | - | 0 W/m² | - |
| 1787905111 | 18.33° C | 99% | 1018 hPa | 0 mm | - | 0 W/m² | - |
| 1787904807 | 18.33° C | 99% | 1018.4 hPa | 0 mm | - | 0 W/m² | - |
| 1787904503 | 18.33° C | 99% | 1018.5 hPa | 0 mm | - | 0 W/m² | - |
| 1787904202 | 17.78° C | 99% | 1018.5 hPa | 0 mm | - | 0 W/m² | - |
| 1787903897 | 17.78° C | 99% | 1018.5 hPa | 0 mm | - | 0 W/m² | - |
| 1787903594 | 17.78° C | 99% | 1018.4 hPa | 0 mm | - | 0 W/m² | - |
| 1787903294 | 17.78° C | 99% | 1018.6 hPa | 0 mm | - | 0 W/m² | - |
| 1787902990 | 17.78° C | 99% | 1018.5 hPa | 0 mm | - | 0 W/m² | - |
| 1787902687 | 18.33° C | 99% | 1018.6 hPa | 0 mm | - | 0 W/m² | - |
| 1787902381 | 18.33° C | 99% | 1018.5 hPa | 0 mm | - | 0 W/m² | - |
| 1787902077 | 18.33° C | 99% | 1018.5 hPa | 0 mm | - | 0 W/m² | - |
| 1787901772 | 18.33° C | 99% | 1018.5 hPa | 0 mm | - | 0 W/m² | - |
| 1787901468 | 18.33° C | 99% | 1018.4 hPa | 0 mm | - | 0 W/m² | - |
| 1787901164 | 18.33° C | 99% | 1018.4 hPa | 0 mm | - | 0 W/m² | - |
| 1787900863 | 18.33° C | 99% | 1018.3 hPa | 0 mm | - | 0 W/m² | - |
| 1787900559 | 18.33° C | 99% | 1018.3 hPa | 0 mm | - | 0 W/m² | - |
| 1787900258 | 18.89° C | 99% | 1018.2 hPa | 0 mm | - | 0 W/m² | - |
* Rain latest hour (hover to see other rain measurements)
** Current wind speed in m/s (hover to see current wind gust speed)